Location: Unspecified
(0.0000°N, 0.0000°E)
Time: 19:56:58
(UTC+00:00)

PSAT 2 - Visible Passes

Search period start: 31 July 2021 00:00
Search period end: 10 August 2021 00:00
Orbit: 300 x 741 km, 28.5° (Epoch: 31 July)

Date Brightness Start Highest point End Pass type
(mag) Time Alt. Az. Time Alt. Az. Time Alt. Az.
31 Jul ? 03:58:16 50° ENE 03:58:16 50° ENE 04:02:34 10° ESE visible
31 Jul ? 05:33:54 10° W 05:38:27 31° SSW 05:43:09 10° SSE visible
01 Aug ? 03:43:50 24° ESE 03:43:50 24° ESE 03:45:58 10° ESE visible
01 Aug ? 05:18:52 15° WSW 05:21:54 25° SSW 05:26:17 10° SSE visible
02 Aug ? 03:29:12 10° ESE 03:29:12 10° ESE 03:29:18 10° ESE visible
02 Aug ? 05:04:13 19° SW 05:05:20 21° SSW 05:09:16 10° SSE visible
03 Aug ? 04:49:23 17° SSW 04:49:23 17° SSW 04:52:05 10° SSE visible
04 Aug ? 04:34:20 11° S 04:34:20 11° S 04:34:40 10° S visible
